Flag for U.S.A. Weather past 2 weeks in Provo, Utah, U.S.A.

Now
59 °F

Passing clouds.


Feels Like: 58 °F
Forecast: 56 / 74 °F
Wind: 6 mph from Southeast

Location: Provo Municipal

Current Time: Sep 21, 2014 at 10:15:25 PM

Latest Report: Sep 21, 2014 at 9:35 PM


Visibility: 10 mi

Pressure: 30.16 "Hg

Humidity: 88%

Dew point: 55 °F

Location of ProvoLocation

Historic Weather in Provo — Graph

°F

Provo temperature yesterday

Maximum temperature yesterday: 81 °F (at 2:59 PM)
Minimum temperature yesterday: 55 °F (at 6:49 AM)
Average temperature yesterday: 65 °F

Past Weeks' High & Low Weather Summary

 TemperatureHumidityPressure
High90 °F (Sep 7, 3:53 PM)94% (Sep 9, 5:53 PM)30.29 "Hg (Sep 9, 5:53 PM)
Low45 °F (Sep 12, 4:35 AM)17% (Sep 7, 3:53 PM)29.81 "Hg (Sep 18, 6:57 PM)
Average63 °F59%30.08 "Hg
* Reported Sep 6 8:00 PM — Sep 21 8:55 PM, Provo, Weather by CustomWeather, © 2014

Note: Actual official high and low records may vary slightly from our data, if they occured in-between our weather recording intervals... More about our weather records

Advertising

Provo weather history for previous 24 hours

 ConditionsComfort  
Time TempWeatherWind HumidityBarometerVisibility
8:55 PM
Sep 21
61 °FPassing clouds.No wind83%30.18 "Hg10 mi
7:55 PM63 °FScattered clouds.No wind77%30.16 "Hg10 mi
6:58 PM64 °FScattered clouds.No wind73%30.17 "Hg10 mi
5:48 PM66 °FMore clouds than sun.3 mph68%30.16 "Hg10 mi
4:50 PM64 °FMore clouds than sun.8 mph78%30.17 "Hg10 mi
3:59 PM64 °FMore clouds than sun.5 mph78%30.19 "Hg10 mi
2:49 PM63 °FMore clouds than sun.No wind83%30.22 "Hg10 mi
1:47 PM64 °FMostly cloudy.9 mph83%30.23 "Hg10 mi
12:57 PM64 °FPartly sunny.5 mph78%30.22 "Hg10 mi
11:59 AM63 °FLight rain. Mostly cloudy.6 mph83%30.25 "Hg10 mi
10:49 AM61 °FLight rain. Mostly cloudy.10 mph83%30.24 "Hg10 mi
9:55 AM63 °FLight rain. Mostly cloudy.5 mph83%30.20 "Hg10 mi
8:56 AM63 °FLight rain. Mostly cloudy.3 mph83%30.19 "Hg10 mi
7:55 AM61 °FLight rain. Overcast.3 mph83%30.20 "Hg10 mi
6:52 AM64 °FLight rain. Overcast.5 mph73%30.16 "Hg10 mi
6:35 AM64 °FPassing clouds.5 mph68%30.16 "Hg10 mi
5:55 AM64 °FPassing clouds.3 mph64%30.18 "Hg10 mi
5:35 AM64 °FPassing clouds.7 mph68%30.18 "Hg10 mi
5:15 AM64 °FPartly cloudy.5 mph64%30.19 "Hg10 mi
4:55 AM66 °FOvercast.12 mph60%30.18 "Hg10 mi
4:35 AM66 °FPassing clouds.16 mph56%30.16 "Hg10 mi
4:15 AM61 °FPassing clouds.13 mph63%30.14 "Hg10 mi
3:55 AM63 °FClear.5 mph64%30.11 "Hg10 mi
3:35 AM63 °FClear.No wind59%30.11 "Hg10 mi
3:15 AM63 °FClear.No wind59%30.10 "Hg10 mi
2:55 AM63 °FClear.No wind59%30.11 "Hg10 mi
2:35 AM63 °FClear.5 mph64%30.11 "Hg10 mi
2:15 AM64 °FClear.3 mph56%30.12 "Hg10 mi
1:55 AM64 °FClear.5 mph56%30.12 "Hg10 mi
1:35 AM64 °FClear.No wind60%30.12 "Hg10 mi
1:15 AM64 °FClear.No wind56%30.12 "Hg10 mi
12:55 AM63 °FClear.No wind64%30.12 "Hg10 mi
12:35 AM64 °FClear.3 mph64%30.12 "Hg10 mi
11:55 PM
Sep 20
64 °FClear.5 mph56%30.12 "Hg10 mi
11:35 PM66 °FClear.7 mph52%30.12 "Hg10 mi
11:15 PM66 °FClear.7 mph56%30.13 "Hg10 mi
10:55 PM68 °FClear.5 mph53%30.13 "Hg10 mi
10:35 PM70 °FClear.8 mph53%30.13 "Hg10 mi
10:15 PM73 °FPassing clouds.7 mph50%30.12 "Hg10 mi
Weather by CustomWeather, © 2014

See weather overviewHow to use our weather pages